Weather History for SBCY - September, 2013

Change the Weather History Date:

Friday, September 27, 2013

  Actual Average Record
Temperature  
Mean Temperature 83 °F -  
Max Temperature 100 °F 92 °F 104 °F (2004)
Min Temperature 66 °F 74 °F 57 °F (2012)
Cooling Degree Days 18    
Growing Degree Days 33 (Base 50)    
Moisture  
Dew Point 52 °F    
Average Humidity 35    
Maximum Humidity 64    
Minimum Humidity 11    
Precipitation  
Precipitation 0.00 in - - ()
Sea Level Pressure  
Sea Level Pressure 29.84 in    
Wind  
Wind Speed 3 mph ()    
Max Wind Speed 12 mph    
Max Gust Speed -    
Visibility 4.7 miles    
Events      
Averages and records for this station are not official NWS values.
T = Trace of Precipitation, MM = Missing Value Source: Averaged Metar Reports

Daily Weather History Graph

Daily Weather History Graph

Search for Another Location

Airport or City:

Trip Planner

Search our weather history database for the weather conditions in past years. The results will help you decide how hot, cold, wet, or windy it might be!

Date:

Astronomy

Sep. 27, 2013 Rise Set
Actual Time 5:29 AM AMT 5:40 PM AMT
Civil Twilight 5:08 AM AMT 6:02 PM AMT
Nautical Twilight 4:43 AM AMT 6:27 PM AMT
Astronomical Twilight 4:18 AM AMT 6:52 PM AMT
Moon 12:00 AM AMT (9/27) 11:38 AM AMT (9/27)
Length of Visible Light 12h 53m
Length of Day
12h 10m
Last Quarter, 45% of the Moon is Illuminated
Sep 27
Last Quarter
Oct 4
New
Oct 11
First Quarter
Oct 18
Full
Oct 26
Last Quarter

Hourly Weather History & Observations

Time (AMT) Temp. Heat Index Dew Point Humidity Pressure Visibility Wind Dir Wind Speed Gust Speed Precip Events Conditions
12:00 AM 71.6 °F - 50.0 °F 46% 29.92 in - ENE 2.3 mph - N/A   Clear
1:00 AM 71.6 °F - 50.0 °F 46% 29.89 in - NE 1.2 mph - N/A   Clear
2:00 AM 72 °F - 51 °F 36% 29.85 in 12 mi Calm Calm - -  
2:00 AM 71.6 °F - 51.8 °F 50% 29.86 in - Calm Calm - N/A   Clear
3:00 AM 68.0 °F - 51.8 °F 56% 29.86 in - North 2.3 mph - N/A   Clear
4:00 AM 66.2 °F - 53.6 °F 64% 29.86 in - North 2.3 mph - N/A   Clear
5:00 AM 68.0 °F - 53.6 °F 60% 29.89 in - South 1.2 mph - N/A   Clear
5:25 AM 66.2 °F - 53.6 °F 64% 29.89 in 2.5 mi West 2.3 mph - N/A   Smoke
6:00 AM 68.0 °F - 53.6 °F 60% 29.89 in 2.5 mi North 2.3 mph - N/A   Smoke
7:00 AM 73.4 °F - 55.4 °F 53% 29.92 in 2.5 mi North 3.5 mph - N/A   Smoke
8:00 AM 79 °F - 52 °F 28% 29.92 in 2 mi SW 2.3 mph - -   Smoke
8:00 AM 78.8 °F - 51.8 °F 39% 29.95 in 2.5 mi SW 2.3 mph - N/A   Smoke
9:00 AM 86.0 °F - 51.8 °F 31% 29.95 in 2.5 mi North 3.5 mph - N/A   Smoke
10:00 AM 91.4 °F - 50.0 °F 24% 29.92 in 3.1 mi NNE 3.5 mph - N/A   Smoke
11:00 AM 93.2 °F - 48.2 °F 21% 29.89 in 3.1 mi ESE 3.5 mph - N/A   Smoke
12:00 PM 96.8 °F - 48.2 °F 19% 29.86 in 5.0 mi NNE 5.8 mph - N/A   Unknown
1:00 PM 98.6 °F - 50.0 °F 19% 29.80 in - North 8.1 mph - N/A   Clear
2:00 PM 99 °F - 50 °F 11% 29.75 in 7 mi SSW 8.1 mph - -   Haze
2:00 PM 98.6 °F - 50.0 °F 19% 29.77 in - SSW 8.1 mph - N/A   Clear
3:00 PM 100.4 °F - 50.0 °F 18% 29.74 in - North 5.8 mph - N/A   Clear
4:00 PM 100.4 °F - 50.0 °F 18% 29.74 in - WNW 11.5 mph - N/A   Clear
5:00 PM 98.6 °F - 50.0 °F 19% 29.74 in - West 4.6 mph - N/A   Clear
6:00 PM 93.2 °F - 51.8 °F 24% 29.77 in - WNW 3.5 mph - N/A   Clear
7:00 PM 91.4 °F - 51.8 °F 26% 29.77 in - West 2.3 mph - N/A   Clear
8:00 PM 90 °F - 53 °F 19% 29.78 in 12 mi WNW 3.5 mph - -  
8:00 PM 89.6 °F 87.3 °F 53.6 °F 29% 29.80 in - WNW 3.5 mph - N/A   Clear
9:00 PM 84.2 °F 83.0 °F 55.4 °F 37% 29.83 in - East 2.3 mph - N/A   Clear
10:00 PM 84.2 °F 83.5 °F 57.2 °F 40% 29.83 in - Calm Calm - N/A   Clear
11:00 PM 86.0 °F 84.5 °F 55.4 °F 35% 29.83 in - Calm Calm - N/A   Clear